This is the latest recevied weather packets stored in our database for station/object N4DWK. If no packets are shown the sender has not sent any weather packets the latest 10 day(s).
| Time | Temp. | Humidity | Pressure | Rain* | Wind** | Luminosity | Snow |
|---|---|---|---|---|---|---|---|
| 1777914610 | 22.78° C | 38% | 1014.2 hPa | 0 mm | - | 186 W/m² | - |
| 1777914309 | 23.33° C | 39% | 1014.3 hPa | 0 mm | - | 255 W/m² | - |
| 1777914010 | 23.89° C | 37% | 1014.4 hPa | 0 mm | - | 271 W/m² | - |
| 1777913710 | 23.89° C | 38% | 1014.5 hPa | 0 mm | - | 599 W/m² | - |
| 1777913410 | 23.33° C | 39% | 1014.5 hPa | 0 mm | - | 701 W/m² | - |
| 1777913110 | 23.89° C | 39% | 1014.6 hPa | 0 mm | - | 664 W/m² | - |
| 1777912809 | 23.33° C | 39% | 1014.5 hPa | 0 mm | - | 642 W/m² | - |
| 1777912509 | 22.78° C | 42% | 1014.6 hPa | 0 mm | - | 629 W/m² | - |
| 1777912210 | 22.22° C | 41% | 1014.7 hPa | 0 mm | - | 663 W/m² | - |
| 1777911909 | 21.67° C | 42% | 1014.8 hPa | 0 mm | - | 163 W/m² | - |
| 1777911610 | 21.67° C | 40% | 1014.8 hPa | 0 mm | - | 95 W/m² | - |
| 1777911309 | 21.67° C | 40% | 1014.9 hPa | 0 mm | - | 93 W/m² | - |
| 1777911010 | 22.22° C | 41% | 1014.9 hPa | 0 mm | - | 102 W/m² | - |
| 1777910709 | 21.67° C | 42% | 1014.9 hPa | 0 mm | - | 179 W/m² | - |
| 1777910410 | 21.11° C | 42% | 1014.9 hPa | 0 mm | - | 65 W/m² | - |
| 1777910109 | 21.11° C | 42% | 1015 hPa | 0 mm | - | 65 W/m² | - |
| 1777909809 | 21.11° C | 42% | 1015.1 hPa | 0 mm | - | 113 W/m² | - |
| 1777909509 | 21.11° C | 42% | 1015.2 hPa | 0 mm | - | 183 W/m² | - |
| 1777909210 | 20.56° C | 43% | 1015.2 hPa | 0 mm | - | 86 W/m² | - |
| 1777908909 | 20.56° C | 43% | 1015.2 hPa | 0 mm | - | 158 W/m² | - |
| 1777908609 | 20° C | 45% | 1015.3 hPa | 0 mm | - | 63 W/m² | - |
| 1777908309 | 20° C | 43% | 1015.4 hPa | 0 mm | - | 63 W/m² | - |
| 1777908010 | 20° C | 44% | 1015.4 hPa | 0 mm | - | 79 W/m² | - |
| 1777907709 | 19.44° C | 44% | 1015.4 hPa | 0 mm | - | 84 W/m² | - |
| 1777907409 | 19.44° C | 45% | 1015.4 hPa | 0 mm | - | 62 W/m² | - |
* Rain latest hour (hover to see other rain measurements)
** Current wind speed in m/s (hover to see current wind gust speed)